Terug naar catalogus

STARLINK-35405

ActiefCommunicatieVLEO
NORAD 66440·PAYLOAD·🇺🇸 United States

Gelanceerd Nov 11, 2025 vanaf Cape Canaveral Space Force Station

Loading…

Volgende Passages (komende 24 uur)

TLE

VersSource: CelesTrak SupGP

Epoch: Sep 15, 2026, 03:54 UTC

1 66440C 25259U   26258.16298611 -.00024381  00000+0 -88295-3 0  2582
2 66440  43.0029 284.2991 0001328 265.5935 279.3737 15.27595582    12

Volg STARLINK-35405 in realtime met AllMySat

Download on the App Store